sat.trackr.live / text

‹ back to catalog

STARLINK-36263

NORAD 67202 · 2025-304L

PAYLOAD ACTIVE UNKNOWN

§ Identity

Operator
Country
US
Launch date
2025-12-17
Launch site
AFWTR
Launch vehicle
Mass (kg)
RCS (m²)

Purposes: comms

External: N2YO · Heavens-Above · Gunter

§ Orbital elements

Epoch: 2026-05-25T00:03:38.549664Z

Period
96.11 min
Inclination
70.0019°
Eccentricity
0.0002821
Mean motion
14.98335418 rev/d
Perigee alt
570.1 km
Apogee alt
574.0 km
Semi-major
6,950.2 km
B*
1.9779e-4
RAAN
342.1245°
Arg perigee
264.7225°
Mean anomaly
95.3612°
Rev number
2,531

§ Raw data

STARLINK-362631 67202U 25304L   26145.00252951  .00002268  00000+0  19779-3 0  99962 67202  70.0019 342.1245 0002821 264.7225  95.3612 14.98335418 25311

JSON: /api/v1/satellites/67202 · /tle

For live sub-satellite position, see the globe view (requires WebGL).

§ Visibility from observer

Set your observer location to see the next 7 days of passes ≥ 10°. The values pass through the URL so the page stays shareable.

No JS? Fill the form by hand. The geolocation button needs JavaScript.